Погода в Брисбене

Австралия     27°27′47″S   153°04′46″E
темп.,
°C
ветер,
м/с
пор.,
м/с
влажн.,
%
обл.,
%
осадки,
мм/ч
давл.,
гПа
погр.,
м
24 июня, чт
чт2401:00+16зюз2289100 0.5 102575
04:00+15всв1191100 0.5 102211
07:00+15ююз119279 0.1 102248
10:00+19ссз257294 0.1 1023678
13:00+22с355199 0.1 10201640
16:00+20ссв2567100 0.1 1019380
19:00+19с2872100 0.0 1021426
22:00+17с2784100 0.3 1021238
25 июня, пт
пт2501:00+16с31191100 1.4 1018444
04:00+16ссз2594100 1.5 1019187
07:00+16з1397100 2.4 1021160
10:00+17ссз2793100 2.6 1022449
13:00+17сз0196100 2.4 101990
16:00+17всв129798 5.9 1018184
19:00+16ссв2499100 1.2 1020158
22:00+16сз1299100 4.8 102087
26 июня, сб
сб2601:00+16ссз1299100 7.0 1019127
04:00+17зсз1299100 14.5 101972
07:00+16зюз2598100 0.4 1020200
10:00+15з2689100 0.5 1021233
13:00+18зюз365868 0.0 1020558
16:00+18ююз1355100 0.0 1019199
19:00+16з2658100 0.0 1021178
22:00+14зюз2461100 0.0 1023148
27 июня, вс
вс2701:00+13зюз2560100 0.0 1023164
04:00+12зюз2563100 0.0 1023181
07:00+11зюз24660 0.0 1025136
10:00+15ююз23480 0.0 1025467
13:00+19ююв22473 0.0 10231127
16:00+18в225425 0.0 1023647
19:00+14вюв13690 0.0 102672
22:00+13ю11730 0.0 102735
28 июня, пн
пн2801:00+12юз24770 0.0 1026119
04:00+10юз257827 0.0 1026152
07:00+11юз267380 0.0 1029178
10:00+16ююв36512 0.0 1029821
13:00+19ююв45381 0.0 10271956
16:00+18юв454919 0.0 10271506
19:00+15ю38650 0.0 1029408
22:00+14ю2870100 0.0 1029385